AAL1946 KSAN-KDFW

Flight info

Callsign AAL1946
Flight time 2h 17m
Altitude 35000
Route ZZOOO4 GBN J50 ITEMM/N0436F370 J50 SSO J4 INK GEEKY BOOVE7
Aircraft A320/M-SDE3FGHIRWY/LB1

Departure

Time 2026-05-05 18:54
Airport San Diego International Airport (KSAN)

Arrival

Time 2026-05-05 21:11
Airport Dallas Fort Worth International Airport (KDFW)
Time Latitude Longitude Altitude Speed Heading
2026-05-05 18:20 32.73376 -117.20211 26 ft 0 kts 140°
2026-05-05 18:39 32.73390 -117.20225 25 ft 4 kts 133°
2026-05-05 18:40 32.73405 -117.20250 22 ft 4 kts 105°
2026-05-05 18:40 32.73405 -117.20273 22 ft 4 kts 30°
2026-05-05 18:40 32.73401 -117.20276 25 ft 0 kts 15°
2026-05-05 18:45 32.73418 -117.20270 22 ft 6 kts 14°
2026-05-05 18:45 32.73468 -117.20254 22 ft 8 kts 18°
2026-05-05 18:45 32.73505 -117.20240 23 ft 0 kts 18°
2026-05-05 18:46 32.73520 -117.20234 23 ft 4 kts 17°
2026-05-05 18:46 32.73544 -117.20207 23 ft 6 kts 63°
2026-05-05 18:46 32.73539 -117.20151 23 ft 8 kts 106°
2026-05-05 18:46 32.73523 -117.20082 23 ft 10 kts 106°
2026-05-05 18:47 32.73503 -117.19999 24 ft 11 kts 106°
2026-05-05 18:47 32.73480 -117.19904 23 ft 13 kts 106°
2026-05-05 18:47 32.73455 -117.19798 24 ft 14 kts 106°
2026-05-05 18:47 32.73427 -117.19680 23 ft 16 kts 105°
2026-05-05 18:48 32.73394 -117.19551 23 ft 17 kts 107°
2026-05-05 18:48 32.73360 -117.19411 23 ft 19 kts 106°
2026-05-05 18:48 32.73327 -117.19276 24 ft 16 kts 106°
2026-05-05 18:48 32.73297 -117.19150 24 ft 16 kts 105°
2026-05-05 18:49 32.73268 -117.19027 23 ft 15 kts 105°
2026-05-05 18:49 32.73237 -117.18899 24 ft 16 kts 107°
2026-05-05 18:49 32.73204 -117.18767 30 ft 17 kts 107°
2026-05-05 18:49 32.73168 -117.18623 24 ft 19 kts 107°
2026-05-05 18:50 32.73131 -117.18471 21 ft 19 kts 105°
2026-05-05 18:50 32.73095 -117.18317 23 ft 18 kts 105°
2026-05-05 18:50 32.73066 -117.18196 23 ft 11 kts 106°
2026-05-05 18:50 32.73059 -117.18167 21 ft 0 kts 106°
2026-05-05 18:51 32.73056 -117.18155 21 ft 4 kts 106°
2026-05-05 18:51 32.73042 -117.18096 23 ft 10 kts 106°
2026-05-05 18:51 32.73020 -117.18010 22 ft 12 kts 106°
2026-05-05 18:51 32.72997 -117.17913 23 ft 13 kts 106°
2026-05-05 18:52 32.72969 -117.17807 21 ft 14 kts 108°
2026-05-05 18:52 32.72952 -117.17743 23 ft 5 kts 108°
2026-05-05 18:52 32.72950 -117.17734 22 ft 3 kts 108°
2026-05-05 18:52 32.72961 -117.17664 22 ft 14 kts 75°
2026-05-05 18:53 32.73031 -117.17631 21 ft 14 kts 320°
2026-05-05 18:53 32.73059 -117.17732 21 ft 18 kts 284°
2026-05-05 18:53 32.73133 -117.18046 20 ft 70 kts 287°
2026-05-05 18:53 32.73322 -117.18823 24 ft 123 kts 286°
2026-05-05 18:54 32.73606 -117.19943 218 ft 146 kts 286°
2026-05-05 18:54 32.73878 -117.21061 906 ft 140 kts 285°
2026-05-05 18:54 32.74053 -117.21809 1220 ft 144 kts 284°
2026-05-05 18:54 32.74405 -117.23386 1916 ft 151 kts 284°
2026-05-05 18:55 32.74581 -117.24179 2232 ft 150 kts 283°
2026-05-05 18:55 32.74858 -117.25420 2496 ft 167 kts 285°
2026-05-05 18:55 32.75202 -117.26837 2639 ft 191 kts 286°
2026-05-05 18:55 32.75603 -117.28462 2784 ft 219 kts 287°
2026-05-05 18:56 32.76050 -117.30252 3453 ft 228 kts 285°
2026-05-05 18:56 32.76470 -117.32090 4395 ft 233 kts 278°
2026-05-05 18:56 32.76227 -117.33986 5280 ft 239 kts 241°
2026-05-05 18:56 32.75012 -117.35332 6137 ft 247 kts 204°
2026-05-05 18:57 32.73321 -117.35551 6919 ft 256 kts 169°
2026-05-05 18:57 32.71729 -117.34559 7669 ft 265 kts 141°
2026-05-05 18:57 32.70412 -117.33002 8470 ft 269 kts 133°
2026-05-05 18:57 32.69159 -117.31319 9207 ft 273 kts 133°
2026-05-05 18:58 32.67860 -117.29653 9934 ft 277 kts 136°
2026-05-05 18:58 32.66478 -117.28036 10582 ft 280 kts 139°
2026-05-05 18:58 32.65036 -117.26468 11246 ft 284 kts 137°
2026-05-05 18:58 32.63799 -117.24623 11967 ft 290 kts 121°
2026-05-05 18:59 32.62999 -117.22417 12364 ft 306 kts 104°
2026-05-05 18:59 32.62679 -117.19838 12496 ft 328 kts 96°
2026-05-05 18:59 32.62436 -117.17059 12640 ft 349 kts 96°
2026-05-05 18:59 32.62182 -117.14115 12889 ft 364 kts 96°
2026-05-05 19:00 32.62117 -117.11092 13440 ft 370 kts 84°
2026-05-05 19:00 32.62639 -117.08102 14018 ft 372 kts 70°
2026-05-05 19:00 32.63570 -117.05221 14579 ft 375 kts 67°
2026-05-05 19:00 32.64522 -117.02323 15123 ft 378 kts 67°
2026-05-05 19:01 32.65481 -116.99403 15679 ft 381 kts 68°
2026-05-05 19:01 32.66321 -116.96409 16221 ft 385 kts 76°
2026-05-05 19:01 32.66707 -116.93254 16765 ft 389 kts 87°
2026-05-05 19:01 32.66779 -116.90031 17359 ft 392 kts 88°
2026-05-05 19:02 32.66847 -116.86789 17929 ft 395 kts 88°
2026-05-05 19:02 32.66920 -116.83517 18485 ft 398 kts 88°
2026-05-05 19:02 32.66994 -116.80223 18994 ft 401 kts 88°
2026-05-05 19:02 32.67072 -116.76895 19528 ft 403 kts 88°
2026-05-05 19:03 32.67135 -116.73597 20041 ft 406 kts 89°
2026-05-05 19:03 32.67129 -116.70215 20562 ft 409 kts 91°
2026-05-05 19:03 32.67071 -116.66821 21086 ft 412 kts 92°
2026-05-05 19:03 32.66989 -116.63407 21586 ft 415 kts 92°
2026-05-05 19:04 32.66903 -116.59975 22069 ft 417 kts 92°
2026-05-05 19:04 32.66825 -116.56520 22561 ft 420 kts 91°
2026-05-05 19:04 32.66757 -116.53070 22826 ft 429 kts 92°
2026-05-05 19:04 32.66694 -116.49514 23264 ft 432 kts 92°
2026-05-05 19:05 32.66634 -116.45924 23685 ft 435 kts 92°
2026-05-05 19:05 32.66625 -116.42308 24007 ft 440 kts 88°
2026-05-05 19:05 32.66926 -116.38680 24372 ft 443 kts 84°
2026-05-05 19:05 32.67268 -116.35021 24672 ft 447 kts 85°
2026-05-05 19:06 32.67584 -116.31611 24986 ft 450 kts 85°
2026-05-05 19:06 32.67923 -116.27902 25297 ft 454 kts 85°
2026-05-05 19:06 32.68255 -116.24210 25565 ft 458 kts 85°
2026-05-05 19:06 32.68588 -116.20430 25856 ft 462 kts 85°
2026-05-05 19:07 32.68923 -116.16614 26145 ft 466 kts 86°
2026-05-05 19:07 32.69266 -116.12771 26427 ft 469 kts 86°
2026-05-05 19:07 32.69612 -116.08901 26692 ft 473 kts 86°
2026-05-05 19:07 32.69959 -116.04999 26962 ft 477 kts 86°
2026-05-05 19:08 32.70308 -116.01069 27220 ft 481 kts 86°
2026-05-05 19:08 32.70665 -115.97147 27483 ft 485 kts 86°
2026-05-05 19:08 32.71035 -115.93152 27745 ft 489 kts 86°
2026-05-05 19:08 32.71410 -115.89124 27993 ft 493 kts 86°
2026-05-05 19:09 32.71788 -115.85063 28252 ft 497 kts 87°
2026-05-05 19:09 32.72170 -115.80954 28510 ft 501 kts 87°
2026-05-05 19:09 32.72551 -115.76827 28773 ft 505 kts 87°
2026-05-05 19:09 32.72933 -115.72668 29032 ft 508 kts 87°
2026-05-05 19:10 32.73316 -115.68471 29226 ft 512 kts 88°
2026-05-05 19:10 32.73697 -115.64235 29366 ft 519 kts 89°
2026-05-05 19:10 32.74074 -115.59997 29486 ft 526 kts 89°
2026-05-05 19:10 32.74457 -115.55661 29726 ft 530 kts 89°
2026-05-05 19:11 32.74839 -115.51305 30046 ft 531 kts 90°
2026-05-05 19:11 32.75137 -115.46931 30340 ft 530 kts 92°
2026-05-05 19:11 32.75306 -115.42564 30654 ft 529 kts 95°
2026-05-05 19:11 32.75377 -115.38194 30978 ft 528 kts 96°
2026-05-05 19:12 32.75401 -115.33826 31293 ft 528 kts 96°
2026-05-05 19:12 32.75421 -115.29452 31580 ft 531 kts 96°
2026-05-05 19:12 32.75465 -115.25047 31843 ft 534 kts 96°
2026-05-05 19:12 32.75543 -115.20631 32155 ft 535 kts 95°
2026-05-05 19:13 32.75647 -115.16206 32487 ft 536 kts 95°
2026-05-05 19:13 32.75763 -115.11777 32822 ft 536 kts 95°
2026-05-05 19:13 32.75881 -115.07335 33163 ft 537 kts 95°
2026-05-05 19:13 32.75992 -115.02907 33499 ft 537 kts 95°
2026-05-05 19:14 32.76094 -114.98515 33742 ft 539 kts 96°
2026-05-05 19:14 32.76187 -114.94047 33973 ft 541 kts 96°
2026-05-05 19:14 32.76274 -114.89572 34222 ft 542 kts 96°
2026-05-05 19:14 32.76360 -114.85106 34522 ft 540 kts 96°
2026-05-05 19:15 32.76447 -114.80647 34833 ft 539 kts 95°
2026-05-05 19:15 32.76532 -114.76198 34952 ft 539 kts 95°
2026-05-05 19:15 32.76694 -114.67227 34975 ft 544 kts 95°
2026-05-05 19:16 32.76848 -114.58298 34980 ft 544 kts 96°
2026-05-05 19:16 32.76980 -114.49299 34968 ft 544 kts 96°
2026-05-05 19:17 32.77091 -114.40305 34973 ft 544 kts 96°
2026-05-05 19:17 32.77148 -114.35811 34866 ft 544 kts 96°
2026-05-05 19:17 32.77207 -114.31291 34920 ft 546 kts 96°
2026-05-05 19:18 32.77324 -114.22313 34932 ft 547 kts 96°
2026-05-05 19:18 32.77423 -114.13254 34939 ft 547 kts 97°
2026-05-05 19:19 32.77511 -114.04191 34947 ft 548 kts 97°
2026-05-05 19:19 32.77873 -113.95167 34947 ft 557 kts 86°
2026-05-05 19:20 32.79197 -113.86073 34950 ft 558 kts 86°
2026-05-05 19:20 32.80512 -113.76966 34951 ft 558 kts 86°
2026-05-05 19:21 32.81803 -113.67865 34935 ft 558 kts 86°
2026-05-05 19:21 32.83085 -113.58749 34937 ft 559 kts 86°
2026-05-05 19:22 32.84357 -113.49686 34919 ft 559 kts 86°
2026-05-05 19:22 32.85643 -113.40561 34924 ft 559 kts 86°
2026-05-05 19:23 32.86919 -113.31436 34933 ft 559 kts 86°
2026-05-05 19:23 32.88181 -113.22305 34939 ft 559 kts 87°
2026-05-05 19:24 32.89434 -113.13177 34945 ft 559 kts 87°
2026-05-05 19:24 32.90684 -113.04018 34927 ft 559 kts 87°
2026-05-05 19:25 32.91926 -112.94882 34950 ft 559 kts 87°
2026-05-05 19:25 32.93160 -112.85797 34971 ft 559 kts 87°
2026-05-05 19:26 32.94393 -112.76659 34970 ft 559 kts 88°
2026-05-05 19:26 32.95361 -112.67741 34983 ft 550 kts 97°
2026-05-05 19:27 32.95248 -112.63092 34982 ft 538 kts 106°
2026-05-05 19:27 32.94848 -112.58667 34980 ft 537 kts 106°
2026-05-05 19:27 32.94049 -112.49880 34954 ft 537 kts 106°
2026-05-05 19:28 32.93245 -112.41015 34926 ft 538 kts 107°
2026-05-05 19:28 32.92440 -112.32150 34886 ft 538 kts 107°
2026-05-05 19:29 32.91633 -112.23345 34900 ft 539 kts 107°
2026-05-05 19:29 32.90810 -112.14486 34908 ft 539 kts 107°
2026-05-05 19:30 32.89973 -112.05609 34896 ft 539 kts 107°
2026-05-05 19:30 32.89141 -111.96733 34904 ft 540 kts 107°
2026-05-05 19:31 32.87968 -111.87988 34912 ft 524 kts 117°
2026-05-05 19:31 32.86113 -111.79649 34913 ft 524 kts 117°
2026-05-05 19:32 32.84237 -111.71262 34904 ft 524 kts 117°
2026-05-05 19:32 32.82368 -111.62920 34912 ft 525 kts 117°
2026-05-05 19:33 32.80489 -111.54529 34880 ft 525 kts 117°
2026-05-05 19:33 32.78609 -111.46144 34903 ft 525 kts 117°
2026-05-05 19:34 32.76719 -111.37733 34927 ft 526 kts 117°
2026-05-05 19:35 32.73880 -111.25200 34948 ft 526 kts 117°
2026-05-05 19:35 32.71969 -111.16789 34952 ft 526 kts 117°
2026-05-05 19:36 32.70056 -111.08400 34933 ft 526 kts 117°
2026-05-05 19:36 32.68150 -111.00058 34928 ft 526 kts 117°
2026-05-05 19:37 32.66222 -110.91663 34882 ft 526 kts 117°
2026-05-05 19:37 32.64295 -110.83323 34887 ft 526 kts 117°
2026-05-05 19:38 32.62347 -110.74934 34884 ft 526 kts 117°
2026-05-05 19:38 32.60414 -110.66592 34897 ft 527 kts 117°
2026-05-05 19:39 32.58462 -110.58198 34903 ft 527 kts 117°
2026-05-05 19:39 32.56515 -110.49857 34913 ft 527 kts 117°
2026-05-05 19:40 32.54553 -110.41469 34898 ft 527 kts 117°
2026-05-05 19:40 32.52598 -110.33132 34908 ft 526 kts 117°
2026-05-05 19:41 32.50628 -110.24782 34892 ft 525 kts 117°
2026-05-05 19:41 32.48657 -110.16450 34906 ft 525 kts 117°
2026-05-05 19:42 32.46682 -110.08129 34899 ft 524 kts 117°
2026-05-05 19:42 32.44717 -109.99876 34895 ft 523 kts 117°
2026-05-05 19:43 32.42731 -109.91569 34895 ft 523 kts 117°
2026-05-05 19:43 32.40754 -109.83325 34892 ft 523 kts 117°
2026-05-05 19:44 32.38749 -109.74994 34879 ft 523 kts 117°
2026-05-05 19:44 32.36756 -109.66726 34844 ft 523 kts 117°
2026-05-05 19:45 32.34758 -109.58449 34854 ft 523 kts 117°
2026-05-05 19:45 32.32754 -109.50178 34863 ft 524 kts 117°
2026-05-05 19:46 32.31079 -109.43300 34850 ft 524 kts 117°
2026-05-05 19:46 32.29058 -109.35030 34866 ft 524 kts 117°
2026-05-05 19:47 32.26861 -109.25338 34872 ft 535 kts 109°
2026-05-05 19:47 32.26126 -109.17960 34876 ft 540 kts 106°
2026-05-05 19:48 32.25298 -109.09141 34861 ft 540 kts 106°
2026-05-05 19:48 32.24464 -109.00382 34867 ft 540 kts 106°
2026-05-05 19:49 32.23616 -108.91577 34869 ft 540 kts 106°
2026-05-05 19:49 32.22761 -108.82776 34849 ft 539 kts 106°
2026-05-05 19:50 32.21894 -108.73974 35007 ft 540 kts 107°
2026-05-05 19:50 32.21015 -108.65158 35001 ft 541 kts 107°
2026-05-05 19:51 32.20139 -108.56321 34979 ft 542 kts 107°
2026-05-05 19:51 32.19263 -108.47480 34949 ft 542 kts 107°
2026-05-05 19:52 32.18375 -108.38638 34886 ft 542 kts 107°
2026-05-05 19:52 32.17472 -108.29791 34862 ft 543 kts 107°
2026-05-05 19:53 32.16569 -108.20945 34871 ft 543 kts 107°
2026-05-05 19:53 32.15658 -108.12092 34873 ft 543 kts 107°
2026-05-05 19:54 32.14737 -108.03237 34876 ft 543 kts 107°
2026-05-05 19:54 32.13824 -107.94443 34872 ft 543 kts 107°
2026-05-05 19:55 32.12895 -107.85592 34867 ft 543 kts 108°
2026-05-05 19:55 32.12426 -107.81174 35016 ft 543 kts 108°
2026-05-05 19:55 32.11957 -107.76758 35024 ft 543 kts 108°
2026-05-05 19:56 32.11014 -107.67914 35025 ft 542 kts 107°
2026-05-05 19:56 32.10065 -107.59097 34992 ft 542 kts 107°
2026-05-05 19:57 32.09117 -107.50298 34939 ft 540 kts 107°
2026-05-05 19:57 32.08170 -107.41525 34887 ft 540 kts 107°
2026-05-05 19:58 32.07211 -107.32746 34852 ft 539 kts 108°
2026-05-05 19:58 32.06247 -107.23997 34843 ft 538 kts 108°
2026-05-05 19:59 32.05275 -107.15259 34883 ft 537 kts 108°
2026-05-05 19:59 32.04310 -107.06589 34900 ft 536 kts 108°
2026-05-05 20:00 32.03327 -106.97822 34904 ft 536 kts 108°
2026-05-05 20:00 32.02343 -106.89112 34903 ft 536 kts 108°
2026-05-05 20:01 32.01354 -106.80416 34960 ft 536 kts 108°
2026-05-05 20:01 32.00365 -106.71741 34988 ft 538 kts 108°
2026-05-05 20:02 31.99363 -106.62996 34967 ft 540 kts 108°
2026-05-05 20:02 31.98343 -106.54219 34941 ft 541 kts 108°
2026-05-05 20:03 31.97313 -106.45426 34940 ft 542 kts 108°
2026-05-05 20:03 31.96286 -106.36620 34973 ft 543 kts 108°
2026-05-05 20:04 31.95273 -106.27793 34956 ft 547 kts 105°
2026-05-05 20:04 31.95041 -106.18728 34931 ft 555 kts 99°
2026-05-05 20:05 31.94910 -106.09687 34892 ft 555 kts 100°
2026-05-05 20:05 31.94763 -106.00599 34852 ft 555 kts 100°
2026-05-05 20:06 31.94599 -105.91518 34830 ft 555 kts 100°
2026-05-05 20:06 31.94433 -105.82435 34841 ft 555 kts 100°
2026-05-05 20:07 31.94268 -105.73346 34819 ft 554 kts 100°
2026-05-05 20:07 31.94097 -105.64271 34821 ft 554 kts 100°
2026-05-05 20:08 31.93910 -105.55196 34807 ft 554 kts 100°
2026-05-05 20:08 31.93712 -105.46122 34801 ft 554 kts 100°
2026-05-05 20:09 31.93515 -105.37054 34773 ft 554 kts 100°
2026-05-05 20:09 31.93315 -105.27996 34783 ft 554 kts 99°
2026-05-05 20:10 31.93128 -105.18928 34795 ft 554 kts 99°
2026-05-05 20:10 31.92931 -105.09858 34798 ft 554 kts 99°
2026-05-05 20:11 31.92729 -105.00817 34813 ft 554 kts 100°
2026-05-05 20:11 31.92524 -104.91755 34762 ft 554 kts 99°
2026-05-05 20:12 31.92308 -104.82671 34791 ft 553 kts 99°
2026-05-05 20:12 31.92083 -104.73658 34800 ft 553 kts 99°
2026-05-05 20:13 31.91849 -104.64614 34806 ft 553 kts 99°
2026-05-05 20:13 31.91615 -104.55602 34806 ft 553 kts 99°
2026-05-05 20:14 31.91381 -104.46547 34804 ft 552 kts 99°
2026-05-05 20:14 31.91139 -104.37552 34805 ft 552 kts 99°
2026-05-05 20:15 31.90884 -104.28475 34806 ft 552 kts 99°
2026-05-05 20:15 31.90613 -104.19478 34849 ft 554 kts 99°
2026-05-05 20:16 31.90337 -104.10403 34790 ft 556 kts 99°
2026-05-05 20:16 31.90064 -104.01271 34780 ft 558 kts 99°
2026-05-05 20:17 31.89788 -103.92129 34779 ft 559 kts 99°
2026-05-05 20:17 31.89496 -103.82963 34784 ft 560 kts 99°
2026-05-05 20:18 31.89199 -103.73853 34784 ft 561 kts 99°
2026-05-05 20:18 31.88895 -103.64683 34790 ft 561 kts 99°
2026-05-05 20:19 31.88581 -103.55500 34763 ft 561 kts 99°
2026-05-05 20:19 31.88265 -103.46315 34794 ft 561 kts 99°
2026-05-05 20:20 31.87938 -103.37134 34800 ft 561 kts 99°
2026-05-05 20:20 31.87608 -103.27968 34807 ft 561 kts 98°
2026-05-05 20:21 31.88213 -103.18788 34812 ft 571 kts 84°
2026-05-05 20:21 31.89463 -103.09552 34802 ft 571 kts 84°
2026-05-05 20:22 31.90700 -103.00309 34819 ft 571 kts 84°
2026-05-05 20:22 31.91905 -102.91134 34825 ft 571 kts 84°
2026-05-05 20:23 31.93109 -102.81888 34826 ft 571 kts 84°
2026-05-05 20:23 31.94314 -102.72625 34853 ft 570 kts 84°
2026-05-05 20:24 31.95507 -102.63447 34889 ft 570 kts 84°
2026-05-05 20:24 31.96700 -102.54223 34923 ft 570 kts 84°
2026-05-05 20:25 31.97880 -102.44999 34943 ft 569 kts 84°
2026-05-05 20:25 31.99051 -102.35786 34934 ft 569 kts 84°
2026-05-05 20:26 32.00218 -102.26568 34912 ft 569 kts 84°
2026-05-05 20:26 32.01375 -102.17326 34919 ft 569 kts 84°
2026-05-05 20:27 32.02527 -102.08148 34919 ft 570 kts 84°
2026-05-05 20:27 32.03683 -101.98895 34911 ft 570 kts 84°
2026-05-05 20:28 32.04827 -101.89631 34875 ft 570 kts 84°
2026-05-05 20:28 32.05954 -101.80428 34831 ft 570 kts 84°
2026-05-05 20:29 32.07075 -101.71169 34842 ft 570 kts 84°
2026-05-05 20:29 32.08198 -101.61912 34857 ft 569 kts 84°
2026-05-05 20:30 32.09318 -101.52681 34908 ft 569 kts 84°
2026-05-05 20:30 32.10434 -101.43441 34889 ft 569 kts 84°
2026-05-05 20:31 32.11525 -101.34250 34859 ft 569 kts 84°
2026-05-05 20:31 32.12614 -101.24985 34813 ft 569 kts 84°
2026-05-05 20:32 32.13697 -101.15736 34738 ft 569 kts 84°
2026-05-05 20:32 32.14783 -101.06465 34744 ft 569 kts 84°
2026-05-05 20:33 32.15852 -100.97263 34741 ft 569 kts 84°
2026-05-05 20:33 32.16927 -100.87988 34741 ft 570 kts 84°
2026-05-05 20:34 32.17991 -100.78718 34736 ft 570 kts 85°
2026-05-05 20:34 32.19042 -100.69428 34731 ft 570 kts 85°
2026-05-05 20:35 32.20084 -100.60194 34736 ft 570 kts 85°
2026-05-05 20:35 32.20956 -100.52477 34725 ft 569 kts 84°
2026-05-05 20:36 32.22002 -100.43203 34732 ft 569 kts 85°
2026-05-05 20:36 32.23193 -100.32414 34740 ft 569 kts 85°
2026-05-05 20:37 32.24034 -100.24634 34733 ft 570 kts 85°
2026-05-05 20:37 32.25043 -100.15350 34719 ft 569 kts 84°
2026-05-05 20:38 32.26050 -100.06140 34740 ft 568 kts 84°
2026-05-05 20:38 32.27058 -99.96892 34741 ft 568 kts 84°
2026-05-05 20:39 32.28038 -99.87626 34738 ft 567 kts 85°
2026-05-05 20:39 32.28700 -99.78359 34734 ft 565 kts 89°
2026-05-05 20:40 32.29062 -99.69149 34743 ft 563 kts 90°
2026-05-05 20:40 32.29433 -99.59895 34748 ft 563 kts 89°
2026-05-05 20:41 32.29906 -99.50650 34749 ft 563 kts 88°
2026-05-05 20:41 32.30419 -99.41411 34753 ft 563 kts 88°
2026-05-05 20:42 32.30905 -99.32171 34752 ft 562 kts 89°
2026-05-05 20:42 32.31354 -99.23003 34752 ft 562 kts 89°
2026-05-05 20:43 32.31792 -99.13765 34750 ft 562 kts 89°
2026-05-05 20:43 32.32225 -99.04576 34747 ft 561 kts 89°
2026-05-05 20:44 32.32656 -98.95361 34244 ft 563 kts 89°
2026-05-05 20:44 32.32878 -98.90708 33297 ft 570 kts 89°
2026-05-05 20:44 32.33104 -98.86018 32407 ft 573 kts 89°
2026-05-05 20:44 32.33327 -98.81331 31819 ft 569 kts 89°
2026-05-05 20:45 32.33764 -98.72068 30760 ft 559 kts 89°
2026-05-05 20:45 32.33973 -98.67493 30227 ft 555 kts 89°
2026-05-05 20:45 32.34175 -98.62947 29773 ft 549 kts 89°
2026-05-05 20:46 32.34371 -98.58502 29225 ft 545 kts 89°
2026-05-05 20:46 32.34566 -98.54052 28646 ft 541 kts 89°
2026-05-05 20:46 32.34759 -98.49628 28150 ft 535 kts 89°
2026-05-05 20:46 32.34955 -98.45257 27638 ft 529 kts 89°
2026-05-05 20:47 32.35148 -98.40933 27152 ft 524 kts 89°
2026-05-05 20:47 32.35334 -98.36642 26675 ft 519 kts 89°
2026-05-05 20:47 32.35513 -98.32398 26217 ft 514 kts 89°
2026-05-05 20:47 32.35685 -98.28194 25767 ft 509 kts 89°
2026-05-05 20:48 32.35854 -98.24028 25317 ft 506 kts 89°
2026-05-05 20:48 32.36025 -98.19880 24879 ft 502 kts 89°
2026-05-05 20:48 32.36193 -98.15818 24439 ft 499 kts 89°
2026-05-05 20:48 32.36353 -98.11939 24016 ft 497 kts 89°
2026-05-05 20:49 32.36517 -98.07867 23568 ft 495 kts 89°
2026-05-05 20:49 32.36676 -98.03805 23047 ft 494 kts 89°
2026-05-05 20:49 32.36831 -97.99756 22590 ft 490 kts 89°
2026-05-05 20:49 32.36983 -97.95729 22169 ft 485 kts 89°
2026-05-05 20:50 32.37135 -97.91791 22035 ft 474 kts 89°
2026-05-05 20:50 32.37285 -97.87940 21862 ft 463 kts 89°
2026-05-05 20:50 32.37432 -97.84202 21565 ft 456 kts 89°
2026-05-05 20:50 32.37577 -97.80463 21204 ft 452 kts 89°
2026-05-05 20:51 32.37722 -97.76773 20818 ft 447 kts 89°
2026-05-05 20:51 32.37868 -97.73113 20424 ft 443 kts 89°
2026-05-05 20:51 32.38025 -97.69491 20020 ft 440 kts 86°
2026-05-05 20:51 32.38542 -97.65944 19649 ft 436 kts 74°
2026-05-05 20:52 32.39594 -97.62595 19258 ft 433 kts 62°
2026-05-05 20:52 32.41138 -97.59577 18863 ft 426 kts 50°
2026-05-05 20:52 32.43090 -97.56984 18486 ft 417 kts 39°
2026-05-05 20:52 32.45182 -97.54623 18097 ft 414 kts 39°
2026-05-05 20:53 32.47256 -97.52261 17660 ft 412 kts 40°
2026-05-05 20:53 32.49305 -97.49914 17226 ft 409 kts 40°
2026-05-05 20:53 32.51342 -97.47572 16910 ft 406 kts 40°
2026-05-05 20:53 32.53361 -97.45250 16581 ft 403 kts 40°
2026-05-05 20:54 32.55374 -97.42944 16246 ft 401 kts 40°
2026-05-05 20:54 32.57375 -97.40658 15912 ft 399 kts 40°
2026-05-05 20:54 32.59371 -97.38381 15615 ft 397 kts 41°
2026-05-05 20:54 32.61326 -97.36144 15248 ft 394 kts 40°
2026-05-05 20:55 32.63269 -97.33916 15113 ft 383 kts 40°
2026-05-05 20:55 32.65155 -97.31749 14987 ft 372 kts 40°
2026-05-05 20:55 32.66987 -97.29641 14846 ft 363 kts 40°
2026-05-05 20:55 32.68795 -97.27562 14596 ft 359 kts 40°
2026-05-05 20:56 32.70586 -97.25502 14290 ft 357 kts 40°
2026-05-05 20:56 32.72365 -97.23454 13996 ft 355 kts 40°
2026-05-05 20:56 32.74122 -97.21432 13715 ft 353 kts 40°
2026-05-05 20:56 32.75899 -97.19418 13394 ft 349 kts 36°
2026-05-05 20:57 32.77873 -97.17864 13094 ft 338 kts 19°
2026-05-05 20:57 32.80075 -97.16954 12785 ft 326 kts
2026-05-05 20:57 32.82262 -97.16695 12427 ft 316 kts 352°
2026-05-05 20:57 32.84483 -97.16680 12090 ft 314 kts 353°
2026-05-05 20:58 32.86642 -97.16659 11775 ft 313 kts 353°
2026-05-05 20:58 32.88808 -97.16630 11321 ft 309 kts 354°
2026-05-05 20:58 32.90949 -97.16601 10765 ft 306 kts 354°
2026-05-05 20:58 32.93067 -97.16575 10219 ft 303 kts 354°
2026-05-05 20:59 32.95163 -97.16551 9690 ft 299 kts 355°
2026-05-05 20:59 32.97233 -97.16523 9138 ft 296 kts 355°
2026-05-05 20:59 32.99282 -97.16497 8583 ft 292 kts 354°
2026-05-05 20:59 33.01301 -97.16472 8133 ft 286 kts 355°
2026-05-05 21:00 33.03286 -97.16451 7787 ft 286 kts 355°
2026-05-05 21:00 33.05280 -97.16432 7442 ft 286 kts 355°
2026-05-05 21:00 33.07241 -97.16412 7175 ft 284 kts 355°
2026-05-05 21:00 33.09176 -97.16386 7109 ft 273 kts 355°
2026-05-05 21:01 33.11038 -97.16360 7054 ft 262 kts 355°
2026-05-05 21:01 33.12838 -97.16332 6724 ft 263 kts 355°
2026-05-05 21:01 33.14692 -97.16300 6213 ft 267 kts 355°
2026-05-05 21:01 33.16541 -97.16272 5748 ft 264 kts 356°
2026-05-05 21:02 33.18359 -97.16257 5298 ft 259 kts 356°
2026-05-05 21:02 33.20135 -97.16261 4937 ft 251 kts 355°
2026-05-05 21:02 33.21852 -97.16267 4583 ft 242 kts 355°
2026-05-05 21:02 33.23526 -97.16280 4214 ft 241 kts 355°
2026-05-05 21:03 33.25209 -97.16199 3843 ft 245 kts
2026-05-05 21:03 33.26743 -97.15287 3480 ft 253 kts 41°
2026-05-05 21:03 33.27879 -97.13658 3124 ft 260 kts 59°
2026-05-05 21:03 33.28422 -97.11636 3009 ft 252 kts 80°
2026-05-05 21:04 33.28494 -97.09603 3004 ft 242 kts 100°
2026-05-05 21:04 33.27908 -97.07735 3009 ft 241 kts 126°
2026-05-05 21:04 33.26710 -97.06330 3014 ft 243 kts 153°
2026-05-05 21:04 33.25137 -97.05680 3012 ft 237 kts 179°
2026-05-05 21:05 33.23512 -97.05617 3005 ft 238 kts 184°
2026-05-05 21:05 33.21848 -97.05572 3010 ft 236 kts 181°
2026-05-05 21:05 33.20214 -97.05524 3010 ft 239 kts 182°
2026-05-05 21:05 33.18529 -97.05471 3012 ft 240 kts 182°
2026-05-05 21:06 33.16885 -97.05419 3008 ft 239 kts 182°
2026-05-05 21:06 33.15215 -97.05367 3012 ft 240 kts 183°
2026-05-05 21:06 33.13551 -97.05328 3008 ft 240 kts 183°
2026-05-05 21:06 33.11874 -97.05328 3004 ft 244 kts 185°
2026-05-05 21:07 33.10181 -97.05342 3004 ft 243 kts 185°
2026-05-05 21:07 33.08483 -97.05360 3002 ft 241 kts 184°
2026-05-05 21:07 33.06846 -97.05371 2998 ft 229 kts 184°
2026-05-05 21:07 33.05290 -97.05380 3000 ft 221 kts 185°
2026-05-05 21:08 33.03746 -97.05396 2873 ft 220 kts 185°
2026-05-05 21:08 33.02222 -97.05408 2616 ft 218 kts 185°
2026-05-05 21:08 33.00721 -97.05417 2342 ft 211 kts 184°
2026-05-05 21:08 32.99285 -97.05423 2098 ft 200 kts 184°
2026-05-05 21:09 32.97934 -97.05429 1825 ft 189 kts 185°
2026-05-05 21:09 32.96667 -97.05435 1600 ft 175 kts 186°
2026-05-05 21:09 32.95527 -97.05439 1419 ft 156 kts 183°
2026-05-05 21:09 32.94491 -97.05446 1225 ft 143 kts 185°
2026-05-05 21:10 32.93504 -97.05452 1042 ft 141 kts 184°
2026-05-05 21:10 32.92528 -97.05462 856 ft 141 kts 181°
2026-05-05 21:10 32.91551 -97.05458 677 ft 139 kts 185°
2026-05-05 21:10 32.90636 -97.05470 610 ft 117 kts 180°
2026-05-05 21:11 32.89984 -97.05477 616 ft 69 kts 179°
2026-05-05 21:11 32.89649 -97.05475 604 ft 39 kts 176°
2026-05-05 21:11 32.89421 -97.05469 613 ft 27 kts 180°
2026-05-05 21:11 32.89262 -97.05424 599 ft 22 kts 160°
2026-05-05 21:12 32.89140 -97.05345 595 ft 15 kts 149°
2026-05-05 21:12 32.89097 -97.05317 594 ft 6 kts 153°
2026-05-05 21:12 32.89047 -97.05271 590 ft 12 kts 126°
2026-05-05 21:12 32.89043 -97.05181 588 ft 13 kts 90°
2026-05-05 21:13 32.89045 -97.05067 589 ft 15 kts 89°
2026-05-05 21:13 32.89045 -97.04957 591 ft 11 kts 86°
2026-05-05 21:13 32.89048 -97.04893 591 ft 8 kts 88°
2026-05-05 21:13 32.89044 -97.04809 591 ft 12 kts 95°
2026-05-05 21:14 32.89080 -97.04766 592 ft 8 kts
2026-05-05 21:14 32.89113 -97.04782 593 ft 0 kts 336°
2026-05-05 21:14 32.89133 -97.04775 593 ft 5 kts 18°
2026-05-05 21:14 32.89168 -97.04763 594 ft 6 kts 13°
2026-05-05 21:15 32.89212 -97.04758 595 ft 7 kts
2026-05-05 21:15 32.89269 -97.04764 595 ft 10 kts 355°
2026-05-05 21:15 32.89351 -97.04766 595 ft 13 kts
2026-05-05 21:15 32.89450 -97.04765 595 ft 15 kts
2026-05-05 21:16 32.89555 -97.04765 597 ft 15 kts
2026-05-05 21:16 32.89664 -97.04764 598 ft 16 kts
2026-05-05 21:16 32.89785 -97.04762 597 ft 19 kts
2026-05-05 21:16 32.89922 -97.04760 598 ft 20 kts
2026-05-05 21:17 32.90066 -97.04766 598 ft 22 kts 358°
2026-05-05 21:17 32.90208 -97.04764 597 ft 21 kts
2026-05-05 21:17 32.90304 -97.04762 597 ft 13 kts
2026-05-05 21:17 32.90337 -97.04730 596 ft 7 kts 91°
2026-05-05 21:18 32.90333 -97.04663 596 ft 9 kts 91°
2026-05-05 21:18 32.90342 -97.04636 596 ft 4 kts 34°
2026-05-05 21:18 32.90377 -97.04624 596 ft 6 kts 38°
2026-05-05 21:18 32.90394 -97.04584 596 ft 5 kts 77°
2026-05-05 21:19 32.90397 -97.04566 596 ft 0 kts 79°